| time (UTC) | temp C | wind direction | speed KPH | gust KPH | rain 1hr cm | rain 24hr cm | rain mn cm | humidity % | barometer mb |
| 20260509171145 | 18 | 259 | 3.2 | 9.7 | 0.00 | 0.00 | 0.00 | 40 | 1016.1 |
| 20260509165645 | 18 | 24 | 3.2 | 9.7 | 0.00 | 0.00 | 0.00 | 40 | 1016.1 |
| 20260509164144 | 18 | 29 | 3.2 | 6.4 | 0.00 | 0.00 | 0.00 | 42 | 1016.1 |
| 20260509162644 | 18 | 295 | 3.2 | 9.7 | 0.00 | 0.00 | 0.00 | 42 | 1016.1 |
| 20260509161143 | 18 | 342 | 3.2 | 9.7 | 0.00 | 0.00 | 0.00 | 43 | 1016.3 |
| 20260509155643 | 18 | 24 | 3.2 | 17.7 | 0.00 | 0.00 | 0.00 | 43 | 1016.4 |
| 20260509154143 | 17 | 344 | 6.4 | 12.9 | 0.00 | 0.00 | 0.00 | 43 | 1016.6 |
| 20260509152643 | 17 | 280 | 6.4 | 12.9 | 0.00 | 0.00 | 0.00 | 42 | 1016.8 |
| 20260509151142 | 18 | 255 | 6.4 | 17.7 | 0.00 | 0.00 | 0.00 | 44 | 1016.8 |
| 20260509145642 | 18 | 273 | 9.7 | 17.7 | 0.00 | 0.00 | 0.00 | 42 | 1016.8 |
| 20260509144141 | 17 | 215 | 6.4 | 12.9 | 0.00 | 0.00 | 0.00 | 39 | 1017.1 |
| 20260509142641 | 17 | 285 | 3.2 | 6.4 | 0.00 | 0.00 | 0.00 | 43 | 1017.1 |
| 20260509141140 | 17 | 273 | 3.2 | 12.9 | 0.00 | 0.00 | 0.00 | 45 | 1017.3 |
| 20260509135640 | 17 | 289 | 3.2 | 9.7 | 0.00 | 0.00 | 0.00 | 47 | 1017.4 |
| 20260509134140 | 16 | 180 | 6.4 | 12.9 | 0.00 | 0.00 | 0.00 | 48 | 1017.7 |
| 20260509132640 | 16 | 175 | 6.4 | 12.9 | 0.00 | 0.00 | 0.00 | 45 | 1017.8 |
| 20260509131139 | 16 | 299 | 3.2 | 6.4 | 0.00 | 0.00 | 0.00 | 50 | 1018.0 |
| 20260509125639 | 16 | 68 | 3.2 | 12.9 | 0.00 | 0.00 | 0.00 | 52 | 1018.2 |
| 20260509124138 | 15 | 129 | 6.4 | 12.9 | 0.00 | 0.00 | 0.00 | 51 | 1018.3 |
| 20260509122638 | 15 | 77 | 6.4 | 12.9 | 0.00 | 0.00 | 0.00 | 52 | 1018.4 |
| 20260509121137 | 16 | 71 | 0.0 | 9.7 | 0.00 | 0.00 | 0.00 | 51 | 1018.5 |
| 20260509115638 | 16 | 183 | 3.2 | 17.7 | 0.00 | 0.00 | 0.00 | 51 | 1018.6 |
| 20260509114136 | 15 | 81 | 3.2 | 9.7 | 0.00 | 0.00 | 0.00 | 53 | 1018.8 |
| 20260509112637 | 15 | 192 | 6.4 | 12.9 | 0.00 | 0.00 | 0.00 | 54 | 1019.0 |
| 20260509111136 | 15 | 127 | 6.4 | 12.9 | 0.00 | 0.00 | 0.00 | 54 | 1019.1 |
| 20260509105636 | 15 | 142 | 6.4 | 12.9 | 0.00 | 0.00 | 0.00 | 56 | 1019.3 |
| 20260509104136 | 15 | 109 | 3.2 | 17.7 | 0.00 | 0.00 | 0.00 | 63 | 1019.3 |
| 20260509102635 | 15 | 128 | 6.4 | 17.7 | 0.00 | 0.00 | 0.00 | 60 | 1019.3 |
| 20260509101135 | 15 | 83 | 3.2 | 12.9 | 0.00 | 0.00 | 0.00 | 63 | 1019.4 |
| 20260509095635 | 15 | 166 | 0.0 | 12.9 | 0.00 | 0.00 | 0.00 | 66 | 1019.4 |
| 20260509094134 | 12 | 83 | 6.4 | 12.9 | 0.00 | 0.00 | 0.00 | 69 | 1019.5 |
| 20260509092634 | 12 | 36 | 6.4 | 12.9 | 0.00 | 0.00 | 0.00 | 72 | 1019.5 |
| 20260509091134 | 12 | 39 | 6.4 | 12.9 | 0.00 | 0.00 | 0.00 | 73 | 1019.5 |
| 20260509085633 | 11 | 46 | 6.4 | 12.9 | 0.00 | 0.00 | 0.00 | 77 | 1019.6 |
| 20260509084133 | 11 | 28 | 9.7 | 12.9 | 0.00 | 0.00 | 0.00 | 77 | 1019.7 |
| 20260509082633 | 11 | 55 | 6.4 | 12.9 | 0.00 | 0.00 | 0.00 | 78 | 1019.7 |
| 20260509081132 | 11 | 37 | 6.4 | 12.9 | 0.00 | 0.00 | 0.00 | 78 | 1019.8 |
| 20260509075633 | 11 | 35 | 6.4 | 9.7 | 0.00 | 0.00 | 0.00 | 79 | 1019.8 |
| 20260509074132 | 10 | 71 | 3.2 | 9.7 | 0.00 | 0.00 | 0.00 | 79 | 1019.8 |
| 20260509072632 | 10 | 94 | 3.2 | 9.7 | 0.00 | 0.00 | 0.00 | 79 | 1019.9 |
| 20260509071131 | 10 | 66 | 3.2 | 9.7 | 0.00 | 0.00 | 0.00 | 81 | 1020.0 |
| 20260509065631 | 10 | 68 | 3.2 | 9.7 | 0.00 | 0.00 | 0.00 | 80 | 1020.0 |
| 20260509064131 | 10 | 66 | 6.4 | 12.9 | 0.00 | 0.00 | 0.00 | 84 | 1019.8 |
| 20260509062630 | 8 | 65 | 6.4 | 12.9 | 0.00 | 0.00 | 0.00 | 87 | 1019.8 |
| 20260509061129 | 8 | 58 | 9.7 | 12.9 | 0.00 | 0.00 | 0.00 | 89 | 1019.7 |
| 20260509055630 | 7 | 61 | 6.4 | 12.9 | 0.00 | 0.00 | 0.00 | 92 | 1019.6 |
| 20260509054129 | 7 | 54 | 6.4 | 9.7 | 0.00 | 0.00 | 0.00 | 96 | 1019.5 |
| 20260509052629 | 5 | 55 | 3.2 | 9.7 | 0.00 | 0.00 | 0.00 | 99 | 1019.5 |
| 20260509051128 | 5 | 57 | 6.4 | 9.7 | 0.00 | 0.00 | 0.00 | 99 | 1019.5 |
| 20260509045628 | 5 | 62 | 6.4 | 6.4 | 0.00 | 0.00 | 0.00 | 99 | 1019.4 |
| 20260509044127 | 3 | 53 | 3.2 | 6.4 | 0.00 | 0.00 | 0.00 | 99 | 1019.5 |
| 20260509042628 | 5 | 54 | 3.2 | 6.4 | 0.00 | 0.00 | 0.00 | 99 | 1019.5 |
| 20260509041127 | 3 | 51 | 6.4 | 6.4 | 0.00 | 0.00 | 0.00 | 99 | 1019.5 |
| 20260509035627 | 3 | 51 | 6.4 | 6.4 | 0.00 | 0.00 | 0.00 | 99 | 1019.6 |
| 20260509034127 | 1 | 40 | 3.2 | 6.4 | 0.00 | 0.00 | 0.00 | 98 | 1019.6 |
| 20260509032627 | 2 | 53 | 3.2 | 6.4 | 0.00 | 0.00 | 0.00 | 99 | 1019.8 |
| 20260509031127 | 2 | 43 | 6.4 | 6.4 | 0.00 | 0.00 | 0.00 | 99 | 1019.9 |
| 20260509025626 | 2 | 22 | 3.2 | 3.2 | 0.00 | 0.00 | 0.00 | 99 | 1019.9 |
| 20260509024125 | 2 | 22 | 3.2 | 6.4 | 0.00 | 0.00 | 0.00 | 99 | 1019.8 |
| 20260509022626 | 2 | 23 | 3.2 | 3.2 | 0.00 | 0.00 | 0.00 | 99 | 1019.7 |
| 20260509021125 | 2 | 26 | 3.2 | 6.4 | 0.00 | 0.00 | 0.00 | 98 | 1019.8 |
| 20260509015625 | 3 | 18 | 3.2 | 3.2 | 0.00 | 0.00 | 0.00 | 99 | 1020.0 |
| 20260509014125 | 3 | 49 | 0.0 | 3.2 | 0.00 | 0.00 | 0.00 | 99 | 1020.0 |
| 20260509012625 | 3 | 49 | 0.0 | 0.0 | 0.00 | 0.00 | 0.00 | 98 | 1020.0 |
| 20260509011125 | 3 | 49 | 0.0 | 0.0 | 0.00 | 0.00 | 0.00 | 96 | 1020.0 |
| 20260509005625 | 5 | 88 | 3.2 | 9.7 | 0.00 | 0.00 | 0.00 | 90 | 1020.0 |
| 20260509004124 | 6 | 83 | 3.2 | 9.7 | 0.00 | 0.00 | 0.00 | 89 | 1019.9 |
| 20260509002624 | 7 | 88 | 6.4 | 9.7 | 0.00 | 0.00 | 0.00 | 87 | 1019.8 |
| 20260509001123 | 7 | 84 | 6.4 | 12.9 | 0.00 | 0.00 | 0.00 | 87 | 1019.8 |
| 20260508235623 | 7 | 104 | 6.4 | 12.9 | 0.00 | 0.00 | 0.00 | 86 | 1019.8 |
| 20260508234123 | 7 | 104 | 6.4 | 9.7 | 0.00 | 0.00 | 0.00 | 86 | 1019.9 |
| 20260508232624 | 7 | 95 | 6.4 | 9.7 | 0.00 | 0.00 | 0.00 | 84 | 1020.1 |
| 20260508231123 | 8 | 85 | 6.4 | 9.7 | 0.00 | 0.00 | 0.00 | 82 | 1020.0 |
| 20260508225623 | 8 | 78 | 6.4 | 12.9 | 0.00 | 0.00 | 0.00 | 83 | 1019.9 |
| 20260508224122 | 8 | 91 | 6.4 | 12.9 | 0.00 | 0.00 | 0.00 | 81 | 1019.9 |
| 20260508222623 | 8 | 85 | 6.4 | 12.9 | 0.00 | 0.00 | 0.00 | 80 | 1020.0 |
| 20260508221121 | 8 | 91 | 6.4 | 12.9 | 0.00 | 0.00 | 0.00 | 80 | 1020.0 |
| 20260508215621 | 8 | 79 | 6.4 | 9.7 | 0.00 | 0.00 | 0.00 | 80 | 1020.0 |
| 20260508214121 | 8 | 85 | 6.4 | 9.7 | 0.00 | 0.00 | 0.00 | 79 | 1020.0 |
| 20260508212621 | 8 | 78 | 6.4 | 9.7 | 0.00 | 0.00 | 0.00 | 78 | 1019.9 |
| 20260508211121 | 10 | 81 | 6.4 | 9.7 | 0.00 | 0.00 | 0.00 | 76 | 1019.8 |
| 20260508205621 | 10 | 79 | 6.4 | 9.7 | 0.00 | 0.00 | 0.00 | 76 | 1019.9 |
| 20260508204120 | 10 | 83 | 6.4 | 9.7 | 0.00 | 0.00 | 0.00 | 75 | 1019.8 |
| 20260508202620 | 10 | 84 | 6.4 | 6.4 | 0.00 | 0.00 | 0.00 | 75 | 1019.7 |
| 20260508201120 | 8 | 82 | 6.4 | 6.4 | 0.00 | 0.00 | 0.00 | 77 | 1019.7 |
| 20260508195620 | 8 | 85 | 3.2 | 6.4 | 0.00 | 0.00 | 0.00 | 80 | 1019.6 |
| 20260508194120 | 10 | 80 | 3.2 | 6.4 | 0.00 | 0.00 | 0.00 | 74 | 1019.4 |
| 20260508192621 | 11 | 95 | 3.2 | 6.4 | 0.00 | 0.00 | 0.00 | 65 | 1019.2 |
| 20260508191120 | 11 | 97 | 3.2 | 9.7 | 0.00 | 0.00 | 0.00 | 65 | 1019.0 |
| 20260508185619 | 12 | 96 | 6.4 | 12.9 | 0.00 | 0.00 | 0.00 | 61 | 1018.9 |
| 20260508184118 | 13 | 96 | 6.4 | 12.9 | 0.00 | 0.00 | 0.00 | 59 | 1018.8 |
| 20260508182618 | 13 | 92 | 6.4 | 12.9 | 0.00 | 0.00 | 0.00 | 59 | 1018.8 |
| 20260508181118 | 13 | 85 | 9.7 | 17.7 | 0.00 | 0.00 | 0.00 | 53 | 1018.4 |
| 20260508175618 | 15 | 94 | 6.4 | 17.7 | 0.00 | 0.00 | 0.00 | 55 | 1018.4 |
| 20260508174118 | 15 | 110 | 9.7 | 17.7 | 0.00 | 0.00 | 0.00 | 53 | 1018.3 |
| 20260508172619 | 15 | 99 | 9.7 | 20.9 | 0.00 | 0.00 | 0.00 | 54 | 1018.1 |